Theta_e
344 343 340 338 335 339 337 337 339 346 345 342 352 350 350 348 348 347 347 346 344 344 340 340 339 339 336 339 343 340 338 344 341 344 334 333 346 348 346 346 347 348 347 347
341 342 340 338 338 340 338 334 334 348 344 346 348 352 349 348 347 346 347 347 346 345 344 340 340 340 341 340 342 341 342 340 344 345 344 338 345 347 347 349 347 348 347 349
331 333 335 341 337 333 326 331 331 343 349 351 352 354 351 348 348 347 346 347 346 346 344 340 339 339 339 340 341 342 339 342 344 344 340 342 348 347 349 349 349 346 346 345
331 331 333 329 331 326 326 326 331 352 354 358 348 358 345 350 349 348 347 346 346 346 346 345 342 340 338 336 338 342 340 336 333 340 335 339 343 347 347 347 351 348 348 348
331 331 328 329 330 327 325 328 327 351 342 346 346 349 344 343 350 350 348 347 347 346 346 344 343 340 339 338 336 337 340 339 335 336 333 336 343 347 347 349 349 351 347 348
328 329 327 327 327 328 327 326 321 321 330 341 344 343 344 341 345 349 348 349 349 349 349 349 347 345 343 342 340 342 336 335 330 330 331 336 339 349 350 351 351 348 347 340
325 327 327 329 327 324 326 320 322 325 328 334 340 341 341 342 341 346 347 347 347 349 350 350 350 349 348 348 346 346 338 333 330 329 330 335 339 345 350 350 347 347 343 344
327 329 330 329 325 325 326 321 321 332 331 341 338 349 344 340 342 342 345 345 346 347 349 350 349 348 347 348 346 342 339 336 334 335 336 341 341 342 343 346 350 348 346 346
326 329 331 327 326 326 327 326 325 326 336 341 342 344 340 343 341 342 342 341 343 345 345 346 348 349 347 347 344 341 336 336 335 337 342 343 342 344 346 345 345 346 343 346
327 330 328 332 330 330 329 325 325 324 344 348 344 342 345 343 343 343 342 339 342 341 345 346 347 346 347 348 346 343 342 338 339 342 343 343 343 344 346 347 345 343 346 346
323 322 325 331 331 330 330 328 324 320 329 343 346 341 336 342 343 341 341 339 339 338 343 336 340 344 345 346 346 345 344 343 342 341 342 343 343 344 346 348 347 342 343 345
325 319 327 331 331 330 329 332 320 319 330 336 340 342 338 340 340 341 339 337 336 336 338 339 342 348 349 346 346 345 345 344 342 342 343 344 345 345 347 348 349 346 343 342
329 324 325 327 327 328 332 333 325 319 325 330 338 342 335 337 340 340 339 337 337 339 339 341 348 351 349 347 346 346 345 345 343 343 344 349 349 350 350 350 350 349 348 349
328 321 324 325 328 327 331 332 327 324 329 331 334 339 338 337 340 339 340 339 342 343 346 350 351 350 350 351 349 347 347 349 349 350 349 349 350 350 350 349 350 349 350 349
324 327 325 324 329 331 331 330 327 327 324 325 334 338 338 337 338 339 339 338 339 347 351 352 350 349 351 352 351 351 350 349 350 351 353 353 353 351 351 350 352 350 353 354
322 327 329 328 328 328 328 327 328 327 328 334 335 335 333 335 338 340 340 339 339 350 354 351 351 351 351 351 351 351 353 353 356 355 356 356 357 356 358 357 357 357 356 356
326 323 322 325 326 330 329 329 330 330 328 334 335 332 334 336 339 339 339 340 342 352 354 353 352 352 352 352 354 355 354 354 353 354 353 353 352 352 353 352 352 351 352 353
324 324 323 326 327 331 327 329 329 329 329 327 334 334 336 337 338 339 338 338 341 350 353 353 352 353 353 353 354 354 352 350 348 346 343 339 338 338 340 341 340 341 345 348
324 323 325 327 328 328 330 331 331 329 330 328 335 335 337 338 339 339 339 339 339 348 353 354 354 355 355 353 351 348 341 335 331 328 326 324 323 323 322 322 323 324 326 333
324 323 327 324 330 331 328 330 331 325 328 331 332 336 338 339 341 341 338 339 351 353 354 355 355 354 352 348 336 334 327 326 324 323 322 321 321 321 321 321 321 321 321 323
326 326 330 327 329 329 327 330 330 329 327 333 334 337 339 339 345 345 344 345 353 354 354 353 353 350 345 336 330 329 325 325 323 321 321 321 322 323 325 327 329 330 330 331
327 327 329 330 332 333 331 332 332 328 331 335 337 339 339 346 352 349 345 350 352 351 350 349 347 344 335 331 329 327 326 323 322 320 325 328 329 329 328 329 330 329 329 329
332 329 329 328 330 331 334 332 334 334 334 335 341 344 346 352 351 348 347 350 347 347 346 344 340 333 332 332 331 325 323 323 321 327 331 332 332 330 329 329 329 328 327 326
328 329 332 331 331 331 333 333 334 332 335 337 340 344 351 351 350 349 348 346 345 344 343 339 337 331 329 326 325 325 323 324 329 331 331 331 331 330 329 329 329 328 327 326
327 328 327 329 326 327 329 330 331 333 334 340 349 348 351 352 350 351 347 345 344 343 340 339 333 332 332 329 327 324 326 326 329 330 330 330 328 328 328 327 328 328 325 325
324 325 323 324 324 325 326 327 328 331 333 334 343 349 349 351 350 347 345 344 342 340 337 335 334 333 333 329 326 326 325 324 327 328 326 325 321 319 321 323 327 325 325 325
Wind_Speed
20 4 10 18 13 12 4 10 7 4 8 7 7 17 15 22 20 21 23 25 26 26 31 30 32 31 29 28 23 26 29 24 20 15 12 12 17 10 9 7 5 5 5 2
2 12 20 14 13 10 11 16 7 3 2 6 5 9 14 18 22 27 27 25 29 26 25 29 35 34 29 32 26 30 29 25 18 17 11 9 13 13 10 8 7 8 7 7
9 17 14 12 14 1 7 8 6 10 4 9 11 4 4 6 17 22 26 31 27 31 29 33 36 35 33 34 35 32 30 21 18 16 11 13 11 14 12 9 9 9 9 6
8 10 12 12 11 6 3 6 6 19 13 7 4 4 6 10 9 17 24 27 30 29 33 37 36 35 34 32 30 37 35 25 23 20 16 17 16 13 11 11 8 9 9 10
11 10 10 7 9 4 8 3 4 20 7 7 3 5 2 8 7 12 22 30 35 36 34 36 38 35 33 32 33 34 40 37 31 25 18 18 17 14 12 13 13 9 11 11
10 19 4 7 7 0 2 5 8 5 5 2 5 4 4 2 7 13 21 30 35 37 38 35 34 32 32 31 31 30 37 34 33 30 23 20 21 17 14 12 13 11 10 9
8 13 8 7 5 7 6 7 3 3 3 3 4 7 6 7 9 3 7 8 13 30 37 35 33 33 32 28 27 28 32 35 34 31 30 25 21 21 16 15 16 14 10 15
1 10 5 5 9 9 4 8 6 3 2 1 8 3 5 7 11 6 14 12 11 12 24 31 33 28 26 27 25 26 31 34 33 30 28 25 23 20 21 21 19 19 17 12
6 7 4 5 8 8 3 2 5 7 3 5 2 1 6 7 6 11 16 10 10 12 10 8 18 29 29 29 27 30 29 29 30 28 25 24 25 22 18 18 22 24 19 16
6 4 4 5 5 3 1 2 5 4 4 1 1 2 5 8 7 6 11 8 13 15 13 12 11 15 29 39 31 29 30 28 29 27 24 25 26 23 21 18 19 23 25 23
7 3 8 4 2 4 5 5 3 4 5 5 3 6 7 9 10 7 5 11 13 14 14 18 25 38 36 46 42 36 34 31 31 31 28 30 27 26 23 23 21 21 22 21
7 5 2 4 4 2 6 4 5 5 2 3 5 5 7 8 5 7 8 5 8 12 20 22 30 34 35 48 47 40 36 35 33 31 28 29 27 26 24 23 18 15 17 20
2 2 3 8 8 9 4 3 4 4 3 2 6 5 3 4 10 12 7 6 5 5 18 25 19 15 20 39 39 36 34 35 32 29 27 18 19 19 19 16 15 14 15 15
8 4 7 6 7 5 4 3 2 7 4 4 5 5 6 11 16 15 21 18 14 5 15 12 14 17 15 15 24 23 22 17 14 13 15 15 14 15 15 15 14 17 20 20
5 1 5 6 8 4 6 4 3 3 6 6 8 11 20 22 24 26 32 27 17 6 23 23 22 22 23 23 22 20 17 14 12 14 12 13 18 24 25 25 19 19 15 16
4 3 2 3 6 2 5 8 7 3 3 9 12 5 6 16 19 18 26 28 21 18 27 21 21 22 24 22 21 18 15 12 12 14 9 5 5 9 11 11 12 14 15 15
2 3 3 6 4 4 4 5 4 4 2 11 7 11 8 6 13 22 24 30 29 24 30 28 23 18 17 15 13 12 10 9 9 10 9 7 6 8 10 10 9 10 13 14
5 3 3 3 3 2 8 4 4 6 2 4 6 12 24 26 37 22 20 26 21 21 30 25 24 22 17 12 9 7 8 7 6 6 5 5 4 5 7 9 9 9 8 8
4 4 2 2 3 6 7 2 4 4 3 6 8 8 25 13 13 10 23 27 21 20 33 32 27 21 16 11 9 8 7 6 5 5 5 6 7 8 9 9 10 11 12 12
7 6 4 4 4 7 9 5 6 5 2 4 14 14 19 18 5 7 26 22 26 34 39 35 27 20 14 12 7 7 6 5 5 5 8 8 8 8 7 6 7 6 4 3
4 5 3 2 4 7 9 6 9 7 8 9 27 31 31 15 14 34 31 26 32 44 40 33 24 18 13 9 7 5 4 4 6 6 6 5 3 4 7 8 7 4 3 4
4 4 3 1 2 5 8 3 5 8 11 12 34 38 36 20 27 32 42 43 46 43 37 30 25 18 13 9 6 6 5 5 5 2 2 6 8 9 9 8 6 7 7 8
2 3 4 4 2 14 18 12 11 6 6 12 32 38 46 44 42 46 49 49 43 37 31 26 21 17 13 9 7 6 4 2 2 5 9 7 5 5 3 4 4 7 8 12
7 10 4 3 10 13 26 34 18 14 10 4 34 48 52 48 51 52 50 47 43 38 33 28 21 17 16 12 9 6 2 2 6 7 4 3 3 2 1 2 1 2 9 11
3 7 6 5 9 23 30 37 36 25 6 12 25 52 55 60 56 55 50 48 43 39 33 27 21 19 14 10 6 2 1 5 9 7 4 1 3 5 5 3 1 3 7 8
2 3 1 4 6 6 17 29 34 30 19 16 14 28 49 60 59 55 55 50 45 40 34 26 20 19 14 8 4 3 3 6 9 5 4 3 5 5 5 7 10 9 8 6
Wind_Direction
185 196 233 240 206 213 199 239 205 234 209 101 125 128 158 165 169 165 178 187 190 194 194 201 201 200 191 194 208 213 209 203 209 199 183 202 192 202 211 222 256 285 314 30
26 234 250 248 259 241 228 222 200 184 131 89 92 125 154 171 175 171 178 191 197 197 196 199 197 199 199 199 198 194 206 214 203 199 213 216 208 203 187 226 254 274 284 309
174 253 276 248 272 308 318 135 177 161 171 91 129 64 175 199 166 173 182 194 197 197 197 198 199 203 207 210 207 205 210 207 212 211 219 213 207 204 217 230 239 254 261 303
247 266 233 273 267 134 298 168 129 132 131 164 187 191 233 176 181 177 187 191 195 201 206 210 209 213 214 210 213 216 217 224 233 227 232 231 229 214 213 212 254 244 254 274
258 293 314 306 260 205 217 234 118 161 113 126 229 99 241 130 200 196 187 197 198 198 205 207 210 214 218 220 220 219 226 235 234 225 237 235 235 228 230 239 245 247 235 253
253 291 223 238 296 257 333 2 35 71 128 121 206 102 16 328 224 201 195 199 200 203 207 216 221 222 225 228 226 226 227 232 229 229 234 239 232 222 217 225 246 239 248 343
314 274 275 200 274 344 78 61 319 342 28 209 151 66 224 301 310 130 160 173 212 208 210 211 215 216 223 225 217 222 224 226 227 231 232 238 242 232 228 228 242 244 256 257
231 316 211 237 195 199 192 151 154 226 143 84 36 131 250 166 299 199 145 139 159 185 204 216 214 210 214 220 214 213 218 219 219 223 230 234 236 235 236 234 239 250 253 257
178 257 296 199 196 127 270 247 191 102 61 101 160 329 305 327 263 241 114 149 154 141 179 224 220 234 228 218 218 216 218 223 220 223 225 230 232 232 237 244 240 242 247 248
233 261 305 311 78 33 168 223 14 26 138 102 349 214 216 244 251 292 128 153 170 121 197 232 210 248 241 237 229 220 221 222 228 229 231 238 239 243 244 249 253 244 246 251
178 202 293 21 33 146 10 352 39 114 124 150 117 260 216 220 224 231 58 205 170 148 174 223 240 285 250 236 235 234 227 232 236 240 245 244 252 252 252 253 263 253 248 245
205 133 92 197 219 119 170 204 139 112 311 48 118 253 236 237 296 280 330 305 96 173 168 220 268 273 233 229 231 233 234 238 241 246 251 254 258 257 255 260 260 260 252 250
189 47 38 352 353 348 33 24 86 95 88 188 131 244 209 250 254 235 229 231 275 261 241 259 253 230 211 223 224 232 237 241 244 253 252 256 255 256 257 274 273 270 267 261
90 110 152 180 204 181 301 300 107 116 104 182 196 189 200 221 228 225 211 214 201 256 235 200 175 125 141 175 212 222 227 221 216 222 232 244 256 260 269 275 279 271 273 276
97 256 181 212 208 238 285 271 292 157 172 151 189 176 210 200 218 203 205 209 204 206 161 159 126 126 130 141 152 164 171 185 198 213 229 247 250 246 252 260 255 251 261 277
32 266 158 288 238 185 243 283 320 283 55 74 140 241 235 206 203 211 219 198 193 171 156 135 140 139 133 140 147 159 162 175 189 202 205 185 198 208 206 199 207 225 242 251
82 116 60 267 331 359 10 224 147 159 135 138 160 213 147 182 207 213 194 184 183 162 154 152 153 154 154 153 153 163 173 195 211 225 242 249 255 247 250 258 267 270 264 270
136 125 121 235 28 132 238 329 86 106 115 150 96 153 175 190 204 210 212 198 181 160 163 163 167 169 169 177 187 205 210 221 229 239 251 258 262 262 262 267 275 280 279 275
121 123 73 121 181 273 311 213 128 121 301 153 153 175 180 161 165 216 204 204 198 187 174 175 176 174 169 173 180 195 216 233 245 255 272 282 285 285 282 281 281 282 282 281
26 97 127 97 191 214 238 235 208 95 239 245 160 176 155 145 153 231 196 182 172 174 178 172 170 164 164 159 182 210 220 229 253 282 295 302 308 307 314 318 320 333 348 323
0 355 177 207 213 278 251 230 144 114 232 218 169 164 159 174 195 195 188 172 176 172 169 164 163 166 165 177 188 210 230 249 272 286 291 311 355 47 56 63 72 78 51 37
175 196 243 82 172 278 296 256 142 222 273 185 161 161 169 170 153 149 166 168 168 163 160 163 162 167 176 182 196 207 230 269 291 308 73 95 97 82 80 85 63 48 19 355
100 131 240 133 267 297 343 352 69 64 211 171 163 164 163 153 151 155 153 162 162 160 163 166 166 164 174 189 212 237 250 263 170 128 131 128 125 129 96 92 88 26 17 22
341 7 14 57 337 337 10 10 357 319 40 179 180 171 159 154 156 159 163 165 166 168 166 163 165 167 172 189 208 228 239 158 146 149 136 123 154 156 22 349 52 17 28 65
269 351 326 309 343 344 358 2 359 346 13 103 165 164 161 163 167 170 171 171 171 169 167 169 168 167 174 182 198 231 128 158 167 165 153 199 289 281 290 262 178 57 55 58
242 228 142 253 319 308 327 348 357 354 335 339 195 174 167 172 171 172 172 174 172 169 167 168 172 174 172 173 188 201 181 171 175 171 151 88 40 45 80 102 116 90 84 42